McComb, MS

3:50 AM CDT on June 26, 2017 (GMT -0500)
McComb-Pike County-Lewis

Weather History for KMCB - May, 2012

Change the Weather History Date:

Friday, May 11, 2012

  Actual Average Record
Temperature  
Mean Temperature 65 °F -  
Max Temperature 71 °F 82 °F 91 °F (2002)
Min Temperature 59 °F 59 °F 46 °F (1952)
Growing Degree Days 15 (Base 50)    
Moisture  
Dew Point 58 °F    
Average Humidity 79    
Maximum Humidity 93    
Minimum Humidity 61    
Precipitation  
Precipitation 0.07 in - - ()
Sea Level Pressure  
Sea Level Pressure 29.99 in    
Wind  
Wind Speed 1 mph (ENE)    
Max Wind Speed 5 mph    
Max Gust Speed -    
Visibility 10 miles    
Events Rain    
Averages and records for this station are not official NWS values.
T = Trace of Precipitation, MM = Missing Value Source: NWS Daily Summary

Daily Weather History Graph

Daily Weather History Graph

Search for Another Location

Airport or City:

Trip Planner

Search our weather history database for the weather conditions in past years. The results will help you decide how hot, cold, wet, or windy it might be!

Date:

Astronomy

May. 11, 2012 Rise Set
Actual Time 6:08 AM CDT 7:48 PM CDT
Civil Twilight 5:42 AM CDT 8:14 PM CDT
Nautical Twilight 5:10 AM CDT 8:46 PM CDT
Astronomical Twilight 4:37 AM CDT 9:19 PM CDT
Moon 12:30 AM CDT (5/11) 11:37 AM CDT (5/11)
Length of Visible Light 14h 32m
Length of Day
13h 39m
Waning Gibbous, 63% of the Moon is Illuminated
May 11
Waning Gibbous
May 12
Last Quarter
May 20
New
May 28
First Quarter
Jun 4
Full

Hourly Weather History & Observations

Time (CDT) Temp. Dew Point Humidity Pressure Visibility Wind Dir Wind Speed Gust Speed Precip Events Conditions
12:53 AM 59.0 °F 57.0 °F 93% 29.94 in 10.0 mi Calm Calm - N/A   Clear
1:53 AM 59.0 °F 55.0 °F 87% 29.94 in 10.0 mi Calm Calm - N/A   Clear
2:53 AM 59.0 °F 55.0 °F 87% 29.94 in 10.0 mi Calm Calm - N/A   Clear
3:53 AM 60.1 °F 54.0 °F 80% 29.94 in 10.0 mi Calm Calm - N/A   Clear
4:53 AM 60.1 °F 54.0 °F 80% 29.94 in 10.0 mi Calm Calm - N/A   Clear
5:53 AM 60.1 °F 55.0 °F 83% 29.94 in 10.0 mi NE 3.5 mph - N/A   Clear
6:53 AM 59.0 °F 54.0 °F 83% 29.97 in 10.0 mi Calm Calm - N/A   Clear
7:53 AM 63.0 °F 55.0 °F 75% 29.98 in 10.0 mi Calm Calm - N/A   Clear
8:53 AM 64.9 °F 55.0 °F 70% 30.02 in 10.0 mi Variable 3.5 mph - N/A   Clear
9:53 AM 69.1 °F 55.9 °F 63% 30.04 in 10.0 mi Calm Calm - N/A   Clear
10:53 AM 70.0 °F 55.9 °F 61% 30.04 in 10.0 mi East 4.6 mph - N/A   Clear
11:53 AM 70.0 °F 57.0 °F 63% 30.04 in 10.0 mi Variable 3.5 mph - N/A   Scattered Clouds
12:53 PM 71.1 °F 57.9 °F 63% 30.03 in 10.0 mi Variable 3.5 mph - N/A   Overcast
1:53 PM 71.1 °F 57.9 °F 63% 30.02 in 10.0 mi Calm Calm - N/A   Overcast
2:53 PM 66.9 °F 61.0 °F 81% 30.03 in 6.0 mi Calm Calm - 0.01 in Rain Light Rain
3:53 PM 66.0 °F 63.0 °F 90% 29.99 in 5.0 mi East 4.6 mph - 0.06 in Rain Light Rain
4:53 PM 66.0 °F 62.1 °F 87% 29.98 in 10.0 mi Calm Calm - 0.00 in   Overcast
5:53 PM 68.0 °F 62.1 °F 81% 29.97 in 10.0 mi ENE 4.6 mph - N/A   Clear
6:53 PM 68.0 °F 62.1 °F 81% 29.97 in 10.0 mi East 4.6 mph - N/A   Scattered Clouds
7:53 PM 68.0 °F 62.1 °F 81% 29.99 in 10.0 mi East 4.6 mph - N/A   Mostly Cloudy
8:53 PM 66.9 °F 62.1 °F 84% 30.00 in 10.0 mi Calm Calm - N/A   Overcast
9:53 PM 66.9 °F 62.1 °F 84% 30.03 in 10.0 mi Calm Calm - N/A   Overcast
10:53 PM 66.9 °F 62.1 °F 84% 30.04 in 10.0 mi Calm Calm - N/A   Overcast
11:53 PM 66.0 °F 61.0 °F 84% 30.03 in 10.0 mi Calm Calm - N/A   Mostly Cloudy